Theta_e
303 303 304 304 304 305 304 304 303 303 303 302 302 301 302 302 302 302 302 301 302 302 302 302 303 303 303 303 304 304 305 304 304 303 303 302 302 301 301 301 300 301 300 300 301 301 302 302 301 301 302 303 304 304 304 303 302 302 303 303 303 305 304 303 303 303 303 303 303 303 304 304 303 303 302 302 302 302 302 303 304 303 302 301 300 300 301 301 301 301 301 301 300 301 302 301 300 300 300 300 299 298 298
303 303 303 304 304 304 303 303 303 303 303 302 301 301 301 301 301 301 301 301 301 301 301 302 302 302 303 303 303 304 303 303 303 303 302 302 301 301 300 300 299 299 299 299 300 301 302 301 301 300 301 302 303 303 303 302 302 302 302 302 303 304 303 302 302 303 303 303 303 303 304 304 304 304 303 303 303 303 303 304 304 304 303 303 302 301 302 302 302 303 303 302 302 302 302 301 300 299 298 298 298 298 298
303 302 303 303 303 303 303 302 302 302 302 302 301 301 301 301 301 301 300 300 300 300 301 301 301 302 302 303 303 303 303 302 303 303 302 302 301 300 300 299 299 299 299 300 300 301 302 301 300 300 301 302 302 302 302 302 301 301 301 302 302 303 302 302 302 302 302 302 302 301 300 301 302 303 303 303 302 303 303 303 304 304 304 304 304 304 304 304 304 304 303 303 303 301 301 300 300 298 297 297 298 298 299
302 302 302 302 303 303 303 302 302 303 302 301 301 302 301 301 301 300 300 300 300 300 300 301 301 301 302 303 303 302 302 302 302 303 302 302 302 302 301 301 300 300 300 301 301 301 301 301 300 300 301 301 301 301 301 301 301 301 301 302 302 302 302 301 302 302 302 302 300 300 299 299 301 301 302 302 302 302 302 302 303 303 304 305 305 306 305 304 304 302 302 301 301 300 299 299 299 300 298 298 298 300 300
301 301 301 302 302 302 302 302 302 302 301 301 301 301 300 300 300 300 300 300 300 300 300 300 300 301 302 303 303 303 303 303 303 303 303 303 303 303 302 302 301 301 301 302 302 302 302 302 302 301 301 301 301 301 301 301 301 301 301 301 302 302 302 302 302 303 303 301 299 299 299 300 301 301 302 302 302 302 302 303 304 304 304 304 304 303 303 302 302 302 302 301 300 300 299 298 299 299 299 299 299 300 300
300 301 301 301 301 301 301 301 301 301 301 300 300 300 300 300 300 300 300 300 300 300 300 300 300 300 300 301 302 303 303 304 305 303 303 303 303 303 303 302 302 301 301 302 302 301 301 301 301 301 301 300 300 300 301 301 301 301 301 302 302 302 302 302 302 303 303 301 300 299 299 299 300 301 303 303 303 304 304 304 304 304 303 302 301 302 301 301 301 302 301 301 301 300 299 299 298 298 298 298 299 299 299
300 301 301 301 301 301 301 300 300 300 300 300 300 300 300 300 300 300 300 300 300 300 300 300 300 300 300 300 300 302 302 304 306 305 303 303 304 304 303 303 302 302 302 302 301 302 301 301 300 300 300 300 300 300 300 300 300 300 301 301 302 302 302 302 301 301 302 301 301 301 300 300 301 302 302 303 302 302 301 302 302 303 303 302 301 300 300 300 300 300 300 300 300 299 300 299 298 296 296 296 296 297 299
299 299 299 300 300 300 300 300 300 300 300 300 300 300 300 300 300 299 299 300 300 300 300 300 299 300 300 300 300 300 301 304 305 304 303 303 304 304 303 302 302 302 301 301 301 300 301 301 300 300 300 300 299 300 299 300 300 300 300 301 301 301 301 301 300 299 301 301 301 300 300 300 299 298 298 299 299 299 299 299 300 301 302 301 300 299 298 298 299 299 299 299 299 299 299 299 297 296 295 295 295 295 298
298 298 299 299 299 300 300 301 301 300 300 299 299 299 300 300 300 300 300 300 300 300 300 300 300 300 300 300 300 300 300 301 302 302 303 304 304 303 302 302 301 301 301 300 300 299 299 299 299 299 298 299 299 300 301 301 301 300 301 300 300 301 301 300 299 298 300 301 300 299 299 298 297 296 297 297 298 298 298 299 300 300 301 301 300 299 299 298 298 299 299 299 299 299 299 298 297 297 296 295 294 294 295
298 298 299 299 299 300 300 300 301 300 299 299 299 299 300 300 300 300 300 300 300 300 300 300 299 300 299 299 299 299 299 299 300 301 302 303 304 303 302 302 301 300 299 299 299 298 298 298 298 298 297 298 298 299 299 299 299 300 300 300 299 300 300 300 299 298 299 299 299 298 297 297 297 297 297 298 298 299 299 299 299 301 301 301 301 300 299 298 298 298 298 299 299 299 299 298 297 297 296 295 294 293 294
298 298 298 298 299 299 299 299 299 300 299 299 300 300 300 300 300 300 300 300 300 300 300 300 299 299 299 299 299 299 299 299 299 300 301 302 302 302 302 301 300 300 299 298 298 297 296 297 297 298 298 298 298 299 299 300 300 300 300 300 299 299 300 300 300 299 299 299 299 298 297 297 297 297 298 299 299 300 300 300 300 301 302 302 301 300 299 298 298 298 298 298 298 300 300 299 298 297 296 296 295 293 293
298 298 298 298 298 298 298 299 299 299 300 300 300 300 300 300 299 299 300 300 300 300 300 300 299 299 299 299 299 299 299 299 299 300 301 301 300 301 300 300 299 299 298 298 297 297 296 297 298 298 298 299 299 299 299 300 300 299 300 300 300 298 300 300 300 300 299 299 299 298 298 297 298 298 300 300 300 300 300 300 300 300 302 302 301 300 299 299 298 298 297 297 299 299 299 298 298 298 297 296 295 293 292
298 298 298 298 298 298 298 299 299 299 300 301 301 300 300 300 300 299 299 299 300 300 300 300 300 300 300 301 300 299 299 299 299 299 300 300 300 300 299 299 298 298 298 297 297 297 297 297 297 297 297 298 299 300 299 299 299 299 299 299 299 298 299 300 300 300 300 299 300 299 299 298 298 299 299 299 299 299 299 299 299 299 301 301 301 300 299 299 299 299 297 297 298 299 298 298 298 298 297 296 295 294 293
298 298 298 298 298 298 298 299 299 300 301 301 301 300 300 300 299 299 299 299 299 300 300 300 300 300 301 301 301 300 299 299 299 299 300 300 300 299 298 298 298 297 299 298 297 297 297 296 296 296 297 298 298 298 299 298 298 297 297 298 298 298 298 299 300 299 299 299 299 299 298 298 298 297 297 297 298 298 298 298 298 299 302 302 301 300 300 299 299 299 298 298 298 298 297 297 297 298 297 296 295 295 294
298 298 298 298 298 299 299 299 300 300 301 301 300 300 300 300 300 300 299 299 299 299 300 300 299 299 299 300 301 300 299 300 300 299 299 299 300 299 298 298 299 298 298 299 298 297 297 297 297 297 297 297 297 295 296 296 296 296 296 297 297 298 299 298 298 298 298 298 298 298 298 298 298 298 298 297 297 298 298 298 298 300 302 301 301 300 299 299 299 298 298 298 297 297 297 297 297 297 297 297 296 295 295
297 298 298 298 299 299 299 299 300 300 300 300 300 299 300 300 300 300 300 300 300 299 300 300 299 299 299 299 300 300 299 300 300 299 299 299 300 301 299 298 298 298 298 298 298 298 299 298 297 297 296 295 295 294 295 295 295 295 296 297 297 299 299 299 298 297 297 297 298 298 298 298 298 298 297 297 297 297 297 298 298 300 301 300 299 298 298 298 298 297 297 297 296 296 296 296 296 295 296 297 297 296 295
297 297 298 298 299 299 299 299 300 300 300 300 300 299 300 300 300 299 300 300 300 300 300 300 301 300 300 300 300 300 299 299 300 299 299 299 299 300 298 297 297 297 297 296 296 297 297 297 296 296 295 294 294 294 295 295 295 295 296 297 298 299 298 298 298 297 297 297 297 297 297 297 297 297 297 297 297 297 298 298 299 300 301 299 298 297 296 296 296 295 295 295 295 295 295 295 295 294 295 296 296 296 295
297 297 298 299 299 299 299 299 299 299 300 300 300 300 300 300 300 300 300 300 300 300 300 300 301 300 301 301 301 300 300 300 299 299 299 299 299 298 298 298 297 297 296 296 296 295 295 295 295 295 294 294 294 295 295 296 296 296 297 297 298 298 298 297 297 297 297 297 297 296 296 296 297 297 297 297 298 298 299 299 299 301 300 299 297 296 296 295 295 295 294 294 294 294 294 294 294 293 294 295 295 295 294
297 298 298 299 299 299 299 300 299 299 300 300 300 300 300 300 300 300 300 300 300 300 300 300 300 300 301 301 301 301 300 300 300 299 299 299 299 298 299 299 298 297 296 296 296 295 295 295 295 294 293 293 293 294 295 296 296 296 297 297 297 297 297 297 297 297 297 297 296 296 296 296 297 297 298 298 299 299 298 298 299 300 299 298 297 296 295 295 295 295 294 294 294 293 293 293 293 293 293 293 293 293 292
298 298 299 299 299 299 299 299 299 299 299 299 300 300 300 300 300 300 300 300 300 300 300 300 300 301 301 301 301 302 301 300 300 300 299 299 298 298 298 298 298 297 296 296 296 296 295 295 294 294 293 292 292 293 294 295 296 296 296 297 297 297 297 297 297 297 297 297 297 296 297 297 298 298 299 298 298 298 298 298 298 298 298 297 296 295 294 294 294 294 294 294 293 293 293 292 292 292 292 292 292 292 292
298 298 299 299 298 298 299 299 299 298 299 299 299 299 299 299 299 299 299 300 300 300 300 299 300 300 301 301 302 302 301 301 300 300 299 299 298 298 298 298 297 297 297 296 296 296 296 295 294 293 293 293 293 293 294 294 295 295 296 296 296 296 296 296 296 296 296 296 296 297 297 298 298 298 298 298 298 298 298 298 298 297 297 295 294 293 293 293 293 293 293 293 293 292 292 292 292 291 291 291 291 291 292
298 298 298 298 298 298 298 298 298 298 298 299 299 299 299 299 299 299 299 299 299 299 299 299 299 300 300 301 301 302 301 301 300 300 299 299 299 298 298 298 298 297 297 297 296 296 295 294 294 294 293 293 293 294 294 294 294 295 295 295 295 295 295 295 295 295 295 296 296 297 297 297 297 298 297 297 298 298 298 298 297 296 295 294 293 292 292 292 292 292 292 292 292 291 291 291 290 290 290 290 291 290 291
298 298 298 298 298 298 298 298 298 298 298 299 299 299 300 300 299 299 299 299 299 299 299 299 299 299 300 301 301 301 301 301 300 299 299 299 299 299 299 299 298 298 298 297 295 295 294 294 293 294 294 294 294 295 295 294 294 295 295 295 295 295 295 295 295 295 295 296 296 296 297 297 297 297 297 297 297 297 297 296 296 295 294 293 293 292 292 292 292 291 292 291 291 290 290 290 289 289 290 290 290 289 289
298 298 298 298 298 298 298 298 298 298 298 298 299 299 299 299 298 298 298 298 298 299 299 299 299 299 300 301 301 301 300 299 298 298 299 299 299 299 299 299 299 298 297 296 295 295 294 294 294 294 295 295 295 295 295 295 295 295 295 295 295 295 295 295 295 295 295 296 296 296 296 296 296 296 297 296 296 296 296 295 295 295 294 293 293 292 292 291 291 290 291 290 290 290 289 289 289 289 290 289 288 288 288
298 297 297 297 297 297 297 297 297 298 298 298 298 298 299 299 298 298 298 298 298 298 299 299 299 300 300 301 301 300 298 298 298 299 300 300 299 299 298 298 297 297 297 296 296 296 295 295 295 296 296 296 296 296 296 296 296 295 295 295 295 296 295 295 296 296 296 296 296 296 296 296 296 296 296 296 295 295 295 295 295 295 294 293 293 292 291 291 290 290 290 290 290 289 289 289 289 289 289 288 288 288 288
297 297 297 297 297 297 297 297 297 297 297 297 298 298 298 298 298 298 298 298 298 298 298 299 299 299 300 300 299 298 297 297 299 300 300 300 299 298 298 297 297 297 296 296 296 296 296 296 297 296 296 296 297 297 296 296 295 295 294 295 295 295 295 296 296 296 296 296 296 296 296 296 296 296 296 295 294 294 295 295 295 294 294 293 292 291 291 290 290 289 289 290 290 289 289 289 288 288 288 288 288 288 288
297 297 297 297 297 297 297 297 297 297 297 297 297 297 297 297 297 297 297 297 297 297 298 298 299 299 299 299 298 296 296 298 299 299 299 299 298 297 297 297 297 296 296 296 296 295 295 296 297 297 296 297 297 297 297 296 296 295 295 295 295 295 295 296 296 296 295 295 296 296 296 296 295 295 295 295 294 294 294 294 294 293 293 292 291 291 290 290 290 289 289 289 290 290 289 288 288 288 288 287 287 287 288
297 297 297 297 297 297 297 297 297 297 297 296 296 297 297 297 297 297 297 297 297 296 297 298 299 299 298 298 297 296 297 298 298 298 298 298 297 296 296 296 296 296 296 296 296 297 297 297 297 297 297 296 296 297 297 296 296 296 296 296 296 296 296 296 296 296 295 296 296 296 296 296 295 295 295 294 294 294 294 294 293 293 292 291 291 290 290 290 289 289 289 289 289 290 289 288 288 289 288 288 288 288 289
297 297 297 297 297 298 298 298 297 297 297 296 296 296 296 296 296 297 296 296 296 296 297 297 298 298 297 297 296 296 298 298 297 297 297 297 296 295 295 295 296 296 296 296 296 297 297 297 296 296 296 296 296 297 296 296 296 296 296 296 296 296 296 296 296 296 295 296 296 296 296 295 295 294 294 293 293 293 293 293 292 292 292 291 291 291 290 290 289 289 289 290 289 289 288 288 289 290 289 289 289 289 290
297 297 297 297 297 298 298 298 297 296 296 296 296 296 296 296 296 296 296 296 296 296 296 297 297 297 297 296 296 296 297 297 297 297 296 295 295 295 295 295 295 295 296 296 296 297 297 296 296 296 296 296 296 296 296 296 296 296 297 297 296 296 296 296 296 296 295 294 295 295 294 294 293 293 292 292 292 292 292 292 291 291 291 291 291 291 290 290 289 289 290 290 289 289 289 290 290 289 289 290 290 291 291
297 297 297 297 298 298 298 297 297 296 296 296 296 296 296 296 296 296 296 296 296 296 296 297 297 296 296 296 295 295 297 297 297 295 295 295 295 294 294 294 294 294 295 295 295 296 297 297 297 297 296 296 296 296 296 295 296 296 296 295 295 295 295 295 294 293 293 293 293 294 293 293 293 293 293 292 292 292 292 291 291 291 291 291 290 290 290 290 290 289 290 290 290 290 290 290 290 289 290 290 290 291 291
297 297 297 298 298 298 298 297 296 296 295 295 295 296 296 296 296 296 296 296 296 296 296 296 296 296 296 295 295 295 297 297 297 296 295 295 294 294 293 293 293 293 293 294 294 295 296 296 296 296 296 296 296 295 295 295 295 295 294 294 294 294 294 293 293 292 292 292 293 293 293 293 293 293 293 292 292 292 291 291 290 290 290 290 290 290 290 290 290 289 290 290 290 290 291 290 289 290 290 290 290 290 291
297 297 298 298 298 298 297 296 296 295 295 295 295 296 296 297 297 297 297 297 296 296 295 295 295 295 295 295 294 295 296 296 295 294 294 294 294 294 293 293 293 293 293 293 293 294 295 295 295 295 294 295 294 294 294 294 294 293 293 293 293 293 293 293 292 292 293 293 293 293 293 292 292 292 292 292 292 291 291 290 290 290 289 289 289 289 289 290 290 290 291 291 290 290 291 290 290 289 289 289 289 289 290
297 298 298 298 298 298 297 296 295 295 295 295 295 296 296 297 297 297 297 297 297 297 296 295 294 293 293 293 293 294 295 295 295 294 294 294 294 294 293 293 293 292 292 292 292 293 293 294 294 294 294 294 293 293 293 293 292 292 292 292 292 293 292 292 292 292 293 293 292 292 292 292 292 292 291 291 291 290 290 289 289 289 289 289 290 290 290 290 290 290 291 291 291 291 291 291 290 289 289 289 289 289 289
297 298 298 298 298 298 297 296 295 295 295 295 295 296 296 297 298 298 298 298 298 297 296 295 294 293 293 292 292 293 294 295 294 294 294 293 293 293 293 292 292 291 291 291 291 291 291 292 292 293 293 293 293 293 293 292 292 291 291 292 292 292 291 292 292 292 292 292 292 292 292 291 291 290 290 289 289 289 288 288 288 289 289 289 290 290 290 290 290 290 290 290 290 290 290 290 289 289 288 288 288 289 288
298 298 298 298 298 298 297 296 295 295 295 295 296 297 297 298 298 298 299 299 298 298 297 295 294 293 292 292 291 292 294 294 294 293 293 293 293 292 292 291 291 290 290 290 290 290 290 290 290 291 291 291 292 292 292 292 291 291 291 292 291 291 291 291 292 292 292 292 291 291 290 290 289 289 289 288 288 287 287 287 288 288 288 288 289 289 289 289 288 288 288 288 288 288 288 288 288 287 287 287 286 287 286
298 298 298 298 298 298 297 296 295 295 295 296 297 297 298 298 299 299 299 299 299 298 297 295 294 292 292 291 291 292 293 293 293 293 292 292 291 291 291 290 290 290 290 290 290 289 290 290 290 290 290 290 290 290 291 291 291 291 291 291 291 291 291 291 292 291 291 291 290 290 289 289 288 288 287 287 287 287 287 287 287 287 288 288 288 288 287 287 287 286 286 286 286 286 287 287 287 286 286 285 285 285 285
298 298 298 298 298 298 296 296 295 295 296 297 297 297 298 298 299 299 299 299 299 298 297 295 294 292 292 291 291 290 291 290 290 291 291 291 290 290 290 290 290 290 290 290 290 290 290 290 290 290 290 290 290 290 290 290 291 291 291 291 291 292 291 291 291 290 290 290 289 288 288 287 287 287 287 287 287 287 287 287 288 288 288 288 288 288 287 287 287 287 286 286 286 286 286 286 286 285 285 285 285 285 285
298 298 298 298 298 297 296 295 295 296 296 297 297 298 298 299 299 299 299 299 299 298 297 295 293 292 292 291 290 289 289 290 290 290 290 290 290 290 290 290 290 290 290 290 290 290 290 290 290 290 290 290 290 290 290 291 291 292 292 292 291 291 291 290 290 289 289 288 288 288 288 287 287 287 287 287 287 287 288 288 288 288 288 288 288 288 287 287 287 286 286 286 286 285 285 285 285 285 285 284 284 284 284
298 299 299 298 297 296 295 295 295 296 296 297 297 298 298 299 299 299 299 299 299 298 296 295 293 292 291 290 289 290 291 291 291 291 290 290 291 290 290 291 291 291 291 291 291 291 291 291 291 291 291 291 291 291 291 291 292 292 291 291 290 290 289 289 289 288 288 288 288 288 288 288 288 287 287 287 288 288 288 288 288 288 288 288 288 288 287 286 286 286 286 285 285 285 285 285 285 285 285 285 284 284 284
298 299 298 298 297 296 295 296 296 296 297 297 298 298 299 299 299 299 299 298 298 298 296 294 292 291 291 290 290 291 292 292 291 291 291 291 291 291 291 292 292 292 292 291 291 291 291 291 291 291 291 291 291 291 291 291 291 290 290 290 289 289 289 289 288 288 288 288 288 288 288 288 288 288 288 288 288 288 288 288 288 288 288 288 287 287 287 286 286 286 286 286 285 285 285 285 285 285 285 285 285 285 285
298 298 297 297 296 296 296 296 296 297 297 298 298 299 299 299 299 299 298 298 297 297 295 294 292 291 291 290 290 291 292 292 292 291 292 292 292 292 292 293 293 292 292 292 292 292 291 291 291 291 290 290 290 290 290 290 289 289 290 289 289 288 288 288 288 288 288 288 288 288 288 288 288 288 288 288 288 288 288 288 288 288 287 287 287 286 286 286 286 286 286 286 286 285 285 285 286 286 286 285 285 285 285
297 297 297 296 296 296 296 296 297 297 298 298 299 299 299 299 298 298 297 297 297 296 295 293 292 291 291 291 291 292 292 292 292 292 292 293 293 293 293 293 293 292 292 292 291 291 290 290 289 289 289 289 289 289 289 289 289 290 290 289 289 289 289 288 288 288 288 288 288 288 288 288 288 288 288 288 288 288 288 288 287 287 287 287 287 286 286 286 286 286 286 286 286 286 286 286 286 286 286 286 286 286 286
297 297 297 297 296 296 296 297 297 298 298 298 299 299 299 298 298 297 297 297 296 296 294 293 292 292 291 291 291 291 292 292 292 292 293 293 293 292 292 291 291 291 290 290 290 289 289 289 289 289 289 289 290 290 290 290 290 290 290 290 289 289 288 288 288 288 288 288 288 288 288 288 288 288 288 288 288 288 287 287 287 287 287 287 286 286 286 286 286 286 287 286 286 286 286 286 286 286 286 286 286 286 286
297 297 297 297 297 296 297 297 298 298 298 299 299 299 298 298 297 296 296 296 296 295 294 292 291 291 291 290 290 290 291 291 291 291 291 291 291 291 290 290 290 290 289 290 289 290 290 290 290 290 290 290 290 291 291 291 291 291 290 290 289 289 289 289 289 288 288 288 288 288 288 288 288 288 288 288 287 287 287 287 287 287 287 286 286 287 287 287 287 287 287 286 286 286 286 286 286 286 286 286 286 286 287
297 297 297 297 296 297 297 297 298 298 299 299 299 299 297 296 296 296 296 296 296 295 293 292 291 290 290 290 290 290 290 290 290 290 290 290 290 290 290 290 290 290 290 290 290 291 291 291 291 291 291 292 292 292 292 292 291 291 290 290 289 289 289 289 289 288 288 288 288 287 287 287 287 288 288 287 287 287 287 287 287 287 287 287 287 287 287 287 287 287 286 286 286 286 286 286 286 286 286 286 286 287 286
297 297 297 297 297 297 297 297 298 298 299 299 299 298 296 296 296 296 296 296 295 294 293 292 290 289 290 290 290 290 290 290 290 290 290 290 290 290 290 290 290 291 291 291 291 292 292 292 292 292 292 292 292 292 292 292 292 291 290 290 289 289 289 289 288 288 288 287 287 287 287 287 287 287 287 287 287 287 287 287 287 287 286 286 286 286 286 286 286 286 286 286 286 286 286 285 285 286 286 286 286 286 285
297 297 297 297 297 297 297 297 298 299 299 298 298 296 295 295 296 296 296 295 295 294 292 291 289 288 289 289 289 289 289 289 289 289 289 289 289 289 289 289 290 291 292 292 292 292 292 292 292 293 293 293 292 292 292 292 291 291 290 289 289 288 288 288 287 287 287 287 287 287 286 287 287 287 287 287 287 287 287 286 286 287 286 286 286 286 286 286 286 286 286 286 285 285 285 285 285 286 286 286 285 285 285
297 297 297 297 297 297 297 298 298 298 298 297 296 295 295 295 295 295 295 295 294 293 291 290 289 288 289 289 289 289 289 289 288 288 288 288 288 288 288 289 290 291 292 292 292 293 293 293 293 293 293 293 292 292 292 291 291 290 288 287 287 287 287 286 286 286 287 287 287 286 287 286 286 286 286 286 286 286 286 286 286 286 286 286 286 287 287 287 287 286 286 286 286 286 285 285 285 285 286 286 285 285 285
297 297 297 297 297 297 297 298 298 298 297 296 295 294 294 295 295 295 295 294 293 292 291 290 289 289 288 288 288 288 288 288 288 287 287 287 287 288 288 289 291 291 292 292 292 293 293 293 293 293 292 292 292 291 291 290 289 287 286 286 286 286 286 286 286 286 286 286 287 286 286 286 286 286 285 285 285 285 285 285 286 286 286 286 287 287 288 289 289 288 287 287 287 286 285 285 284 284 285 285 285 285 285
297 297 297 296 296 297 297 297 297 297 296 295 294 294 294 294 294 294 294 294 293 292 291 290 290 289 288 288 288 288 288 288 288 288 287 287 288 288 289 290 291 292 292 292 292 293 293 292 292 292 292 291 291 290 289 287 286 286 286 286 286 286 286 286 286 286 286 286 286 286 286 285 285 285 285 285 284 285 284 284 285 285 285 286 286 288 289 289 289 289 289 287 286 285 284 283 283 283 284 285 285 285 284
296 296 296 296 296 297 297 296 296 296 295 294 294 294 294 294 294 294 294 293 293 292 291 290 290 289 288 288 288 288 287 287 288 288 288 288 288 288 289 290 291 291 292 292 292 292 292 292 292 291 291 290 288 287 286 285 285 285 286 286 286 286 286 286 287 286 286 286 286 285 285 284 284 284 284 284 284 284 284 284 284 284 285 285 286 287 288 289 289 289 289 288 287 284 283 283 282 283 284 284 284 284 284
296 296 296 296 296 296 296 296 296 295 295 295 295 294 294 294 294 294 294 293 293 292 291 290 290 289 288 288 289 289 289 289 290 290 290 290 290 290 290 290 290 290 290 290 291 291 290 290 290 289 288 287 286 285 285 285 285 286 286 286 286 286 286 286 286 286 286 285 285 285 284 284 283 283 284 284 284 283 283 283 283 283 283 284 286 288 288 289 289 290 290 289 287 284 283 282 282 282 283 283 284 284 284
295 296 296 296 296 296 296 296 296 295 295 294 294 294 294 294 294 294 293 293 293 292 292 291 290 289 290 290 290 290 290 291 291 291 291 291 291 292 291 291 290 289 289 289 289 288 288 288 287 287 286 285 285 285 285 285 286 286 286 286 286 286 286 286 286 286 285 285 285 284 284 284 283 283 283 283 283 283 282 282 282 282 282 283 285 288 289 289 290 290 289 289 288 287 284 282 281 282 282 282 283 283 283
295 296 296 297 297 297 297 296 296 295 295 294 294 294 294 294 293 293 293 293 293 292 292 291 290 290 289 289 289 289 289 289 289 290 290 291 291 292 292 291 289 288 288 287 287 286 286 286 286 286 286 285 285 285 286 286 286 286 286 286 286 286 286 285 285 285 285 284 284 284 284 284 283 284 283 282 282 281 280 281 281 281 281 282 285 288 288 289 289 289 289 289 288 287 285 283 282 282 282 282 283 283 283
296 297 297 297 297 297 297 296 295 295 295 294 294 294 294 294 293 293 293 292 292 291 291 290 290 289 289 289 289 288 288 288 288 289 289 290 291 290 290 289 288 287 287 286 286 286 286 286 286 286 286 286 286 286 286 286 286 286 286 286 286 286 285 285 285 285 284 284 284 284 284 283 283 283 282 281 280 280 280 280 280 281 281 282 284 287 288 289 289 289 289 288 288 287 285 284 283 282 282 282 282 282 282
297 297 297 297 297 297 296 296 295 295 295 294 294 294 294 294 294 293 292 291 291 290 290 290 290 290 290 289 289 289 289 289 289 289 289 289 289 288 287 287 286 286 286 286 286 286 286 286 286 286 286 286 286 286 286 286 285 285 285 285 285 285 285 285 285 284 284 284 283 283 283 283 282 282 281 280 280 280 280 280 280 281 281 282 284 287 288 288 288 288 288 288 287 287 285 284 283 282 282 282 283 283 283
297 297 297 297 297 296 295 295 295 294 294 294 294 294 294 294 294 294 293 291 291 291 291 291 290 290 290 290 289 289 289 289 290 290 289 288 287 286 286 286 286 286 286 286 286 286 286 286 286 286 286 286 286 286 285 285 285 285 285 285 285 285 285 285 285 284 283 283 283 283 282 282 281 281 280 280 280 280 280 280 280 281 281 283 285 287 288 288 288 288 287 287 287 286 285 283 283 283 283 283 283 283 283
297 297 297 296 296 295 294 294 294 294 294 293 293 294 294 294 294 294 293 292 291 291 291 291 290 290 290 290 290 290 289 289 289 289 287 286 285 285 285 285 285 285 286 286 286 286 286 286 285 285 285 285 285 285 285 285 285 285 285 285 286 286 285 285 284 284 283 283 282 282 281 281 280 280 280 280 280 280 280 280 280 281 281 283 286 287 287 287 287 287 287 287 286 286 284 283 283 283 284 284 284 284 284
Wind_Speed
4 4 4 5 6 6 6 5 5 4 4 3 3 3 2 2 1 1 1 1 2 2 2 3 2 3 2 2 1 2 2 2 2 2 2 2 1 1 1 1 1 1 1 1 2 2 2 2 2 2 3 3 3 3 4 4 4 4 3 3 2 2 1 1 1 1 1 1 1 1 0 0 0 0 0 1 1 0 0 1 1 2 1 1 0 1 1 1 1 1 1 1 1 1 1 1 1 2 2 2 2 2 2
4 4 4 4 5 5 5 5 5 4 3 3 2 2 2 2 1 0 0 1 1 2 2 3 3 3 3 2 2 2 2 2 2 2 2 2 2 1 1 1 1 1 2 2 2 2 2 2 2 2 3 3 3 4 5 5 5 5 4 4 3 2 2 2 1 1 1 1 1 0 0 0 0 0 0 0 0 0 0 1 1 1 1 1 1 2 2 1 1 1 1 1 1 1 1 0 0 1 2 2 2 1 2
4 4 4 4 4 4 4 4 4 4 4 2 1 1 2 2 2 1 1 1 1 2 2 3 3 4 3 3 3 3 3 2 2 2 2 2 2 2 2 2 2 2 2 3 3 3 3 3 3 3 3 3 4 4 5 6 6 6 5 4 4 3 3 2 2 2 2 1 1 1 1 1 0 0 0 0 0 0 0 1 1 1 1 1 2 2 1 1 1 1 1 1 0 1 1 0 0 0 1 2 2 2 2
3 4 4 4 4 4 4 3 3 4 4 3 2 2 2 3 3 3 2 2 1 1 2 3 3 3 3 3 4 4 4 4 3 2 2 3 3 3 3 3 3 3 3 3 4 4 4 4 4 3 3 3 4 4 5 6 6 7 6 5 4 4 4 4 3 3 3 2 2 2 1 1 1 0 0 0 0 0 0 0 0 0 0 1 1 1 1 1 1 1 2 1 1 1 2 1 1 0 1 2 2 2 1
2 3 3 3 3 3 3 3 3 4 4 4 4 3 3 3 3 3 2 2 2 2 2 3 3 3 3 4 4 5 5 5 4 3 3 3 3 4 4 3 3 4 4 4 4 4 4 5 4 4 4 4 4 4 4 5 5 7 6 6 5 5 5 5 4 4 3 3 3 2 2 1 1 1 0 0 0 0 0 0 0 0 1 1 1 1 2 2 1 1 1 1 1 1 1 2 2 1 1 1 2 2 1
2 1 2 3 3 3 3 3 3 3 3 3 3 3 2 2 2 2 2 2 2 3 3 3 3 3 3 4 4 5 5 6 6 4 5 5 4 5 5 5 5 5 5 5 4 4 4 5 5 5 4 4 4 4 4 4 5 6 7 7 6 6 6 5 5 5 4 4 3 2 2 1 1 1 0 0 0 0 1 1 1 1 1 1 2 2 2 2 2 1 1 1 1 0 0 1 2 2 2 2 2 2 2
1 1 1 1 2 2 3 3 3 3 2 2 2 2 1 1 2 2 3 3 3 3 3 3 3 3 3 3 4 5 5 7 8 7 7 6 7 8 8 7 7 6 6 6 5 5 4 4 4 4 3 3 4 4 4 4 4 5 5 6 6 6 7 6 5 4 5 5 4 2 2 2 1 1 1 0 0 1 1 2 2 1 1 1 1 2 2 2 2 2 2 1 1 1 1 1 1 2 2 2 2 2 2
1 2 2 1 1 2 3 4 4 3 3 3 2 2 2 2 3 3 3 3 4 4 4 5 5 5 5 4 4 5 5 6 8 7 7 6 7 7 6 6 6 6 5 5 4 3 2 2 3 3 3 3 3 4 4 4 4 3 4 5 6 7 7 6 5 4 5 5 5 3 2 2 2 2 1 1 1 1 2 2 2 2 2 2 2 2 2 2 2 2 2 2 1 1 1 1 1 1 2 2 2 2 2
1 1 1 0 1 2 3 3 3 2 3 3 3 3 3 4 4 5 5 5 5 5 5 5 5 5 5 5 5 5 5 6 7 7 6 5 5 4 4 4 4 4 3 2 2 1 1 1 2 3 2 2 2 3 4 3 3 3 4 4 5 6 6 6 5 5 5 6 5 4 3 2 2 2 1 1 1 2 2 2 2 2 2 2 2 2 2 2 2 2 2 2 2 1 1 1 1 1 1 2 2 2 2
2 1 1 1 1 1 0 0 1 2 2 2 3 3 4 5 6 6 6 6 6 5 5 5 5 5 5 5 5 5 5 6 6 7 6 5 5 5 4 4 4 3 3 2 2 2 1 1 2 3 3 3 3 3 4 4 3 4 4 4 5 5 6 6 5 4 5 5 5 4 3 2 2 2 1 2 2 2 2 2 2 3 3 3 3 3 2 2 2 2 3 3 3 2 1 1 1 1 1 1 2 2 2
2 1 1 1 0 1 1 2 2 1 1 1 2 3 4 5 5 6 6 6 6 5 6 6 6 6 5 5 5 5 6 6 6 6 5 5 5 5 5 5 5 5 4 4 3 3 2 2 3 4 4 4 4 4 4 4 4 4 4 3 3 4 5 6 5 4 4 4 4 4 3 3 2 2 2 2 3 3 2 2 3 4 4 4 4 3 3 3 3 3 3 3 3 2 1 1 2 2 1 0 1 2 3
1 1 1 1 1 1 1 1 2 2 2 1 2 3 3 3 3 3 4 4 4 5 5 5 6 6 6 5 5 5 6 6 6 6 5 4 5 5 6 6 6 6 5 5 4 4 3 3 3 3 4 4 4 4 4 4 4 4 4 3 2 2 4 5 5 4 3 3 3 3 3 3 3 3 3 4 4 3 4 4 4 4 4 4 4 4 4 4 3 3 3 3 3 2 2 1 2 2 1 1 1 2 3
2 1 1 2 2 2 1 1 1 2 2 1 2 3 1 1 1 2 2 2 3 4 4 5 5 5 5 5 5 5 5 5 5 5 5 4 5 5 5 6 7 7 6 5 5 4 4 3 3 3 3 3 3 4 4 4 4 4 3 3 2 2 2 4 4 3 2 2 3 4 4 4 4 4 4 4 4 4 5 4 4 4 4 4 4 4 4 4 3 3 3 3 3 2 2 2 2 1 1 1 1 2 3
2 2 2 2 3 3 2 2 2 2 2 2 2 1 0 1 1 1 1 1 2 3 3 4 4 4 5 5 5 5 5 5 5 5 5 5 5 5 5 6 6 7 6 6 5 4 4 4 4 3 3 3 2 2 3 4 4 4 3 3 2 2 2 2 3 3 3 4 4 5 5 5 5 4 4 5 5 5 4 4 3 3 4 3 3 4 4 4 4 4 4 4 4 3 3 2 2 2 2 1 2 2 2
2 3 2 2 3 3 2 2 2 2 2 2 1 0 0 0 1 1 1 1 1 1 2 2 3 3 3 4 5 5 5 6 6 5 6 6 5 5 5 6 6 6 6 5 5 5 5 5 4 3 2 2 2 2 3 4 4 4 3 3 2 2 2 3 3 4 5 5 5 5 5 5 5 5 5 5 5 5 4 4 4 4 4 4 4 4 4 4 4 4 5 5 5 5 4 4 4 3 3 2 2 2 2
3 3 3 3 3 3 3 2 2 1 1 0 0 1 1 1 1 1 1 2 2 2 2 2 2 2 3 3 4 4 5 6 7 6 6 6 7 7 6 5 5 5 6 6 5 5 5 4 3 3 3 2 2 2 3 4 5 4 3 3 2 2 3 3 3 4 5 6 5 5 6 6 7 7 6 6 6 6 6 6 6 5 5 5 5 6 5 5 5 5 5 5 5 5 5 4 4 4 4 3 3 2 2
2 2 3 3 3 2 2 2 1 1 1 1 1 0 0 0 1 2 2 3 3 3 3 3 3 4 4 4 4 4 5 6 6 7 7 7 7 7 6 6 6 7 8 7 6 5 4 3 2 3 3 2 2 2 3 4 4 4 3 3 2 2 3 3 3 3 4 5 6 6 7 7 8 8 7 7 7 7 7 7 6 6 6 6 6 7 6 5 5 4 4 5 5 4 4 4 4 4 4 4 3 3 3
1 1 2 2 2 2 2 3 3 2 2 2 2 2 2 3 3 3 3 3 3 4 4 4 4 4 5 5 5 5 5 6 6 7 8 8 8 8 7 7 7 8 9 8 7 6 4 3 3 3 3 3 3 3 3 3 3 3 3 3 3 3 3 3 3 3 3 4 5 7 7 7 8 8 7 6 6 6 6 5 5 6 5 6 6 7 5 4 4 4 4 4 4 4 4 4 4 4 4 4 4 4 4
1 0 1 1 2 3 4 4 3 2 3 3 3 4 4 4 4 3 3 3 4 4 4 4 5 5 6 6 6 6 6 6 6 6 7 8 9 8 8 8 8 8 9 8 8 7 6 5 5 5 5 4 4 3 4 4 3 3 3 3 3 3 3 3 3 3 3 3 4 6 6 7 7 6 5 5 5 5 4 4 4 5 5 5 6 5 4 4 4 3 4 4 4 4 4 4 4 4 4 4 4 4 4
2 2 3 3 3 4 4 4 3 3 3 3 4 4 4 4 3 3 4 4 4 5 5 6 6 6 7 8 8 8 7 7 7 6 7 8 8 9 8 8 8 8 9 9 8 8 7 6 6 6 6 5 4 4 4 4 4 3 3 3 3 3 3 3 3 3 3 3 4 4 5 5 5 4 4 3 3 3 3 3 3 3 4 4 4 4 3 4 4 4 4 4 4 4 4 4 4 4 4 4 4 4 4
2 4 4 4 4 4 4 4 3 3 3 3 4 4 3 3 3 4 4 5 5 6 7 7 8 8 9 10 10 10 8 8 7 7 7 7 7 7 8 8 8 9 9 9 8 8 7 6 6 6 6 6 5 4 4 4 3 3 3 3 3 3 3 3 2 3 3 3 3 3 4 4 4 3 2 2 2 2 2 3 3 3 3 4 3 3 3 4 5 5 5 5 5 5 5 5 4 4 4 4 4 3 4
3 4 4 4 4 4 4 3 3 4 4 3 3 3 3 3 4 5 5 6 6 7 8 9 9 11 11 11 12 12 11 10 9 8 7 6 6 6 6 7 7 8 9 8 7 7 6 6 6 6 6 5 4 4 4 4 3 3 3 3 3 3 3 2 2 2 2 2 3 3 4 4 3 2 1 1 2 2 2 2 2 3 3 3 3 3 4 5 5 5 4 4 4 5 5 5 5 5 4 4 4 4 4
4 4 4 4 4 4 4 3 4 4 3 3 3 3 4 4 5 6 6 6 7 7 9 10 11 12 12 13 13 13 12 10 9 7 7 6 6 6 6 6 6 7 7 6 5 4 5 5 5 5 5 5 4 4 4 4 4 4 4 4 4 3 3 3 2 2 2 2 2 3 4 3 2 1 1 1 2 2 3 3 3 3 3 3 4 4 4 4 5 4 4 4 4 4 4 5 5 5 4 4 4 4 4
4 4 4 4 4 4 4 4 3 3 3 3 4 4 5 5 6 7 7 7 8 8 10 11 12 13 13 13 13 12 10 9 7 7 8 7 7 7 7 6 5 4 4 3 3 4 4 4 4 4 4 4 4 4 4 4 4 4 4 4 3 3 3 3 2 2 2 2 2 3 3 2 1 0 1 2 2 2 3 3 4 4 5 5 5 4 4 4 4 4 4 4 4 4 4 4 4 4 3 3 4 4 4
5 4 4 4 4 4 4 4 3 3 4 4 5 5 6 6 7 7 8 8 9 9 10 11 12 12 12 12 12 10 8 7 8 8 8 8 7 7 7 7 5 3 2 3 4 4 4 4 4 4 4 4 4 4 4 4 4 4 4 4 3 3 3 3 2 2 3 2 2 2 2 1 1 1 2 2 2 2 3 4 5 5 5 5 5 4 4 4 4 4 3 3 3 3 3 3 3 3 3 4 4 4 5
5 5 5 4 4 4 4 4 4 4 4 4 5 6 7 7 7 8 8 9 9 9 10 10 10 11 11 11 10 7 6 7 8 9 8 7 7 7 7 7 6 6 7 6 5 5 4 5 5 5 4 4 4 4 4 4 4 4 4 4 4 4 3 3 3 3 3 2 2 2 1 1 1 2 2 2 3 3 4 5 5 6 5 5 4 4 4 4 4 3 3 3 3 3 3 3 3 3 4 4 4 5 5
5 5 4 4 4 4 4 3 3 3 4 4 5 6 7 7 8 8 8 8 8 8 8 9 9 9 9 9 8 6 6 7 8 8 7 7 7 6 6 7 8 8 9 8 7 6 6 5 5 5 5 5 5 4 4 4 5 4 4 4 4 3 3 3 3 3 2 2 2 1 0 1 1 2 2 3 3 4 5 5 5 5 5 4 4 4 4 4 4 3 3 3 3 3 3 4 4 4 4 4 5 7 5
5 5 4 4 4 4 3 3 3 3 3 4 5 6 6 7 7 7 7 7 7 7 8 8 8 8 8 7 6 5 7 8 8 8 7 7 7 6 7 7 8 8 8 8 7 7 7 6 5 5 5 5 5 5 5 5 4 4 4 4 3 3 3 3 3 2 2 1 1 0 0 1 1 2 3 4 4 5 5 5 5 4 4 4 4 3 4 4 4 4 3 3 4 4 4 4 5 5 4 5 5 6 5
5 4 4 4 4 3 2 2 2 2 3 4 4 5 5 5 5 5 5 5 6 6 7 8 8 8 7 6 5 4 7 8 8 7 7 6 6 7 7 7 7 8 8 7 7 7 7 7 5 4 5 5 5 5 5 5 4 4 3 3 3 3 3 3 2 2 1 1 0 0 1 2 2 3 3 4 5 5 5 5 5 4 4 4 4 4 4 5 5 4 4 4 4 4 5 5 5 5 5 5 5 5 5
5 4 3 3 3 2 2 2 1 1 2 3 3 3 4 4 5 5 5 4 5 5 6 7 7 8 7 5 4 3 7 8 8 6 6 6 7 7 7 7 7 7 7 6 6 6 7 7 6 5 6 6 5 4 4 4 4 4 3 3 3 3 3 2 2 1 1 0 1 1 2 3 4 4 5 5 5 5 5 5 4 4 4 4 4 5 5 5 6 5 4 4 4 5 5 5 5 6 5 5 5 5 5
4 4 3 3 3 3 2 2 1 0 1 2 2 3 3 3 4 4 4 4 5 5 5 5 6 7 6 4 2 3 7 8 7 5 5 5 6 6 6 6 6 5 5 5 6 6 7 7 6 5 6 6 5 4 4 4 4 3 3 3 3 3 2 2 2 1 1 2 2 3 4 4 5 5 5 6 6 6 6 5 5 4 5 5 5 5 6 6 6 5 4 4 5 5 5 6 6 6 6 6 6 5 5
4 4 3 3 3 3 2 2 1 1 1 1 2 2 3 3 3 4 5 5 5 5 5 4 4 5 5 3 0 4 6 7 7 5 4 5 5 5 5 5 5 5 5 5 6 7 7 6 6 5 5 5 5 4 5 5 4 4 4 4 3 2 2 2 2 2 2 2 3 4 4 4 5 5 6 7 7 7 6 5 5 5 5 6 6 6 6 7 6 6 5 5 5 5 5 6 7 7 6 6 7 7 6
4 3 2 2 3 3 3 2 1 1 1 2 2 2 3 3 3 4 5 6 7 7 6 5 5 4 4 2 1 5 7 8 7 5 5 4 5 5 4 4 4 5 5 5 6 6 7 6 6 5 5 4 4 4 4 4 4 4 4 3 2 2 1 1 1 1 2 2 3 4 4 5 6 7 7 7 7 6 5 5 5 6 6 6 7 7 7 7 7 6 5 5 5 5 5 6 7 8 8 8 8 8 7
3 2 2 2 3 3 3 2 2 1 1 2 2 2 3 3 4 5 6 7 7 8 7 6 5 4 3 1 2 5 7 8 8 6 5 5 5 5 5 5 5 5 5 5 5 6 6 6 6 6 5 4 4 4 4 4 3 3 3 2 2 1 0 0 0 1 2 3 4 5 5 6 7 7 7 7 6 5 5 5 6 6 6 7 7 7 7 8 8 7 6 6 6 6 6 6 7 8 9 9 9 8 7
2 2 2 3 3 4 3 2 2 2 2 2 2 3 3 4 5 6 7 7 8 8 8 7 5 3 3 1 2 5 7 8 8 7 6 6 5 5 6 5 5 5 5 5 5 5 6 6 6 5 5 4 4 3 3 3 3 3 2 2 1 0 0 0 1 1 2 3 4 6 6 7 7 6 6 5 5 5 5 5 6 6 6 7 7 7 7 7 7 6 6 6 6 6 7 7 8 8 8 8 8 6 6
2 2 2 3 4 4 3 2 1 2 2 3 3 4 5 5 6 7 7 8 9 9 9 8 6 3 2 1 2 5 7 8 8 7 6 5 5 5 5 5 5 5 5 4 4 4 5 5 5 4 4 3 3 3 3 3 2 2 1 1 1 1 1 1 2 2 3 4 5 6 6 6 5 5 4 4 4 5 5 5 6 6 6 7 7 7 6 5 5 5 6 6 7 6 6 7 7 7 7 8 8 6 7
2 3 3 4 4 4 3 1 1 2 3 4 5 5 6 6 7 8 9 9 10 9 9 8 6 3 2 2 3 5 7 8 8 8 6 5 4 4 5 5 5 4 4 4 4 4 5 5 4 3 3 2 3 3 2 2 2 1 1 0 0 1 1 2 3 3 4 5 5 5 5 4 4 4 4 4 4 5 5 5 6 6 6 7 7 7 6 5 5 5 6 7 7 7 6 6 6 7 7 8 8 7 7
2 3 3 4 4 4 2 1 2 4 4 5 5 6 6 7 8 9 10 11 10 10 9 8 6 3 3 2 3 4 6 6 6 7 7 5 4 4 5 5 4 4 4 4 4 4 4 4 4 3 3 2 3 3 2 2 2 1 1 1 1 2 3 3 4 4 4 4 4 4 3 3 3 3 4 4 4 5 5 6 6 6 7 7 7 7 6 6 6 7 7 8 9 8 7 7 7 8 8 8 8 8 8
3 3 4 4 4 3 1 2 4 4 5 5 6 7 8 9 10 10 11 11 10 9 9 8 6 4 3 2 2 4 5 5 5 6 6 6 5 5 5 5 4 4 4 4 4 4 4 4 3 3 3 3 3 3 3 3 2 2 2 3 3 3 4 3 3 3 2 2 2 3 3 3 3 4 4 4 5 6 6 6 7 7 7 8 8 7 6 6 7 7 8 8 9 9 9 8 8 8 8 8 8 8 9
3 4 4 4 3 3 3 4 5 6 6 7 7 8 9 10 11 11 11 10 10 9 9 8 6 4 2 1 2 5 7 7 6 6 7 6 6 5 5 5 5 4 4 4 4 4 4 4 3 3 3 3 3 3 3 3 3 3 3 2 2 2 2 1 1 2 2 2 2 3 3 4 4 4 5 5 6 6 7 7 7 8 8 8 8 7 7 7 7 8 8 8 8 9 9 9 9 8 8 8 8 8 9
4 4 4 4 4 4 5 6 7 7 7 8 9 9 10 11 11 11 10 10 10 9 8 7 5 3 1 1 3 5 7 7 6 6 6 6 6 5 5 5 5 5 5 5 5 5 5 4 4 4 3 3 3 3 2 2 1 1 0 0 1 2 2 3 3 4 4 3 3 3 4 4 4 5 5 6 6 7 7 8 8 8 8 8 8 8 7 7 7 7 7 8 8 9 9 9 9 9 9 9 9 9 9
4 5 4 4 4 5 6 6 7 7 8 8 9 10 10 11 10 10 9 9 9 9 8 6 4 2 1 2 4 6 7 7 6 5 5 6 6 6 6 5 5 5 5 5 5 5 5 5 4 3 2 2 2 1 1 1 2 2 3 3 4 5 5 5 5 5 5 4 4 4 4 4 4 5 6 6 7 7 8 8 8 8 8 7 7 7 8 8 8 8 8 8 8 9 9 9 10 10 10 10 10 10 10
5 4 4 4 5 6 6 7 7 7 8 9 9 10 10 10 9 8 8 8 8 8 7 6 3 2 3 3 4 5 6 6 5 5 5 5 6 6 5 5 4 4 4 4 4 4 4 4 3 2 2 2 2 3 4 4 5 5 5 5 5 5 5 5 6 6 6 5 5 5 5 4 4 5 6 7 7 7 7 7 7 7 7 7 7 7 8 8 9 9 9 9 9 9 9 10 10 10 10 10 11 11 11
4 4 4 4 5 6 6 7 7 7 8 9 10 10 10 9 8 7 7 7 8 8 7 5 3 2 3 3 3 4 5 5 4 4 4 4 4 4 3 3 3 3 3 3 3 3 3 3 3 4 4 5 5 6 6 6 6 7 6 6 5 5 5 6 6 7 6 6 5 6 5 5 5 5 6 7 7 7 7 7 7 7 7 7 8 8 8 9 9 10 10 10 10 10 10 10 10 10 10 11 11 11 11
3 4 4 5 5 5 6 6 7 7 8 9 10 10 9 7 6 6 6 7 7 7 6 5 4 3 3 3 3 3 4 3 3 3 3 2 2 3 3 3 3 3 3 4 4 4 4 5 6 6 7 7 7 7 8 7 7 6 6 6 6 6 6 6 6 6 6 6 6 6 6 5 5 5 6 7 7 7 7 7 7 8 8 8 8 8 9 9 10 10 10 10 10 10 10 11 11 11 11 11 11 11 11
4 4 4 4 4 5 6 6 7 8 9 9 10 9 7 5 5 5 6 6 7 6 6 5 4 3 3 3 3 2 2 2 2 2 2 2 3 3 4 4 4 4 5 5 6 6 7 7 7 8 8 8 8 8 7 6 6 6 7 7 7 7 7 6 6 5 5 5 5 5 6 6 5 5 6 6 7 7 7 8 8 8 8 9 9 9 9 10 10 10 10 10 10 10 10 11 11 10 11 11 11 10 10
4 3 3 4 4 5 6 6 7 8 9 9 9 7 5 4 4 5 5 6 5 5 4 4 3 3 3 3 2 2 2 2 3 2 3 3 3 4 4 5 5 5 6 6 6 7 7 7 7 7 7 6 5 5 5 6 7 8 8 8 8 7 5 4 4 4 4 4 5 5 6 6 6 5 6 6 7 7 8 8 8 8 8 9 9 9 10 10 10 10 10 10 10 10 10 10 10 11 11 11 11 10 9
3 3 4 4 5 5 6 7 8 9 9 9 8 5 4 3 4 4 5 5 5 4 4 3 2 2 2 2 2 1 2 2 3 2 3 3 4 4 4 5 5 5 6 6 6 6 6 5 5 4 3 1 2 4 6 8 9 10 9 8 7 4 3 2 2 3 3 4 4 5 5 6 6 6 7 7 7 8 8 8 9 8 8 9 9 9 9 9 9 9 10 10 9 9 10 10 10 10 9 9 9 9 9
4 4 4 5 5 6 7 8 9 9 9 8 6 4 3 3 4 4 5 5 4 4 3 2 2 2 2 1 1 1 2 2 2 2 3 3 3 4 4 4 5 5 5 4 4 4 4 4 3 2 2 3 5 8 9 11 11 10 8 5 3 2 2 2 2 3 3 4 5 5 6 6 7 7 8 8 8 8 8 9 9 8 8 8 8 8 8 9 9 8 8 8 9 8 8 7 7 7 7 7 8 8 9
4 5 5 6 6 7 8 8 9 9 8 6 4 2 2 3 4 4 4 4 4 3 1 1 2 2 1 1 1 2 2 2 2 2 3 3 3 3 4 4 5 5 4 4 4 3 4 4 4 5 6 8 9 11 11 11 9 7 4 3 1 1 2 3 3 4 4 5 5 6 6 7 7 7 8 8 8 9 9 8 8 8 7 7 7 7 10 11 12 10 9 8 7 6 5 5 5 5 6 7 7 8 9
6 6 6 7 8 8 9 9 9 8 7 5 3 2 2 3 3 3 3 3 3 2 1 1 2 3 2 2 2 2 2 2 2 3 3 3 4 4 4 5 5 5 5 4 4 4 4 5 6 8 9 10 11 11 9 7 5 4 2 1 1 2 3 3 4 5 5 5 5 5 6 6 7 6 7 7 8 8 8 8 8 7 7 6 6 8 10 12 13 13 10 7 5 3 3 4 4 5 6 7 7 8 8
7 7 7 8 9 9 9 9 9 8 6 4 2 2 2 2 2 2 2 2 2 2 2 1 1 3 3 3 2 3 2 2 2 2 3 4 4 5 5 5 5 5 4 4 4 5 6 7 9 10 10 10 9 7 5 4 3 2 1 0 1 2 3 4 4 4 4 4 4 5 5 6 6 6 7 7 8 8 8 8 8 8 7 6 6 8 10 11 12 11 9 7 4 3 3 4 4 5 6 7 8 9 9
7 8 8 9 9 9 9 9 8 7 5 3 2 2 2 2 2 2 2 2 2 2 2 1 1 2 2 2 2 3 3 3 2 2 2 2 2 3 4 5 5 5 4 5 5 6 7 8 9 9 8 7 6 4 4 3 2 1 0 1 2 3 4 4 4 4 4 4 4 4 5 6 7 7 7 7 8 8 8 8 8 7 6 6 7 9 10 11 10 9 8 7 6 5 4 4 5 5 6 7 8 9 9
8 9 9 9 9 9 9 8 7 6 4 3 2 1 1 1 2 2 2 2 3 3 2 1 0 1 2 3 3 3 3 3 2 2 1 1 1 1 2 3 4 5 5 6 7 7 7 8 7 6 5 5 4 3 2 2 1 0 1 2 3 4 4 4 4 4 4 3 3 4 6 6 7 7 7 7 7 8 8 8 7 7 7 7 9 10 10 10 9 9 9 9 9 8 6 5 5 5 6 7 8 9 10
9 9 9 9 9 9 9 8 7 5 3 2 1 1 1 1 1 2 3 3 2 2 1 1 2 2 3 3 3 3 2 2 2 1 1 2 3 3 4 4 5 5 6 6 6 6 6 5 4 4 4 3 3 2 1 1 0 1 2 3 3 4 4 4 4 4 4 4 5 6 6 6 7 7 7 7 6 7 7 7 7 7 7 7 8 10 10 9 9 10 10 11 11 11 8 6 6 6 6 7 8 9 10
10 9 9 8 7 7 8 7 6 4 2 1 1 0 0 1 1 3 2 2 1 1 2 2 2 3 3 3 2 1 1 2 2 3 3 4 4 5 5 5 5 5 5 4 4 4 4 4 3 3 3 2 2 1 1 0 1 2 2 3 3 4 4 5 5 4 5 6 7 7 6 6 7 7 7 6 6 7 7 8 8 8 7 7 8 9 9 9 10 11 12 12 13 13 10 8 7 7 8 8 8 9 10
10 9 8 7 7 7 6 5 4 3 1 0 0 0 0 1 2 2 1 1 2 3 3 3 3 3 2 1 1 1 2 2 2 3 4 4 5 5 5 5 5 4 4 4 4 4 4 4 4 3 2 1 1 1 0 1 1 2 3 3 3 4 5 5 5 5 6 7 7 7 6 6 6 6 6 7 7 7 7 7 7 7 7 7 7 8 9 10 11 12 13 14 15 15 12 10 8 9 9 9 10 11 12
9 9 8 8 7 7 5 4 3 1 1 1 1 1 2 2 3 3 2 2 3 3 3 3 2 2 2 2 2 3 3 3 3 3 3 4 4 5 5 5 4 4 4 4 5 5 6 5 4 3 1 1 1 1 1 1 2 2 3 4 4 5 5 5 6 5 6 6 6 6 6 6 6 7 7 7 7 7 7 7 7 7 6 6 7 8 9 10 12 13 14 15 16 16 13 10 9 9 9 9 10 11 12
9 8 8 7 7 6 5 3 2 1 1 1 1 2 3 3 4 3 2 3 3 2 3 3 2 2 3 3 3 3 3 3 3 3 3 3 3 3 3 4 4 4 5 5 6 7 6 5 3 1 1 2 1 1 1 2 2 3 4 5 6 6 6 6 5 5 5 5 5 5 5 6 6 6 7 7 7 8 7 7 6 5 5 5 7 8 10 12 13 15 16 17 17 17 12 10 10 11 10 10 11 12 13
Wind_Direction
91 102 118 129 134 136 137 134 131 130 126 122 118 115 112 105 95 72 100 116 129 155 164 174 187 210 211 193 148 120 130 132 132 134 136 135 138 152 148 154 160 154 185 216 225 217 207 195 180 176 181 180 175 167 168 169 168 165 167 171 178 189 176 155 146 158 146 117 90 77 53 318 296 255 213 212 210 192 133 115 109 105 101 99 124 250 250 260 268 265 268 270 263 244 241 266 307 315 311 304 295 293 303
86 93 102 113 121 127 126 125 123 121 107 97 93 103 110 111 109 197 208 175 164 160 153 171 194 215 208 185 150 129 136 141 146 152 148 149 155 172 164 166 172 187 202 212 218 215 206 195 186 186 189 185 178 175 174 171 169 168 170 176 183 192 184 169 160 169 164 150 122 75 64 305 303 307 270 174 111 78 90 102 107 113 129 169 207 219 220 234 254 263 252 248 253 260 247 248 329 335 314 305 298 293 301
73 82 86 92 99 106 108 111 114 111 101 91 75 110 118 130 157 209 218 215 192 152 149 177 203 217 204 187 172 159 158 163 169 169 162 163 168 174 175 181 190 195 201 206 210 213 206 198 191 195 195 190 184 182 176 172 170 170 173 178 185 192 187 181 178 187 184 168 147 153 170 170 141 352 22 46 72 90 99 103 105 118 167 203 217 223 225 253 294 312 321 331 346 344 328 323 119 1 304 293 285 283 301
64 78 84 90 95 100 105 111 115 117 124 139 177 188 156 165 184 199 204 211 210 180 174 192 208 217 202 194 190 187 181 177 176 173 175 180 182 181 177 181 190 196 197 204 210 210 204 198 193 193 194 190 184 180 177 175 173 173 176 180 186 190 190 189 191 197 190 168 150 171 177 166 143 90 40 38 90 169 137 110 103 133 247 252 259 275 320 333 337 344 343 353 12 21 337 319 300 206 267 270 270 273 301
52 84 94 101 106 111 117 124 131 138 150 163 176 178 176 181 187 185 193 205 216 223 217 212 211 210 201 198 199 201 196 188 181 179 188 192 193 190 184 186 192 199 197 203 212 214 206 200 195 188 187 183 178 173 176 177 177 175 178 182 186 189 190 192 196 201 188 169 158 174 177 170 156 132 49 353 307 240 90 70 46 10 346 337 339 345 355 349 341 344 335 334 350 46 338 318 313 304 276 272 278 285 314
30 75 106 118 124 126 127 134 147 166 168 166 164 170 181 183 179 173 194 207 215 219 227 227 223 217 207 203 203 207 206 200 193 193 195 194 192 193 193 195 198 204 202 203 209 221 217 207 196 186 180 173 168 167 169 174 180 183 182 184 186 189 190 194 198 200 185 173 168 172 174 173 164 121 64 1 320 348 19 15 13 22 11 353 342 343 350 343 332 330 328 321 318 353 16 323 321 323 323 314 304 300 317
21 23 82 117 129 134 142 158 176 185 173 162 160 173 190 192 189 187 201 209 214 218 225 228 229 229 222 213 208 210 212 207 204 204 202 198 195 195 197 199 202 205 206 206 207 212 211 197 185 182 174 167 164 164 165 172 183 189 187 189 192 192 191 192 193 189 177 172 170 169 174 170 152 116 119 142 125 35 21 12 9 22 25 10 352 344 341 332 324 321 320 314 310 318 322 347 349 328 324 316 303 295 301
31 31 34 51 126 167 179 188 191 183 163 161 170 183 196 203 206 204 208 210 213 217 221 223 224 227 228 224 219 214 214 211 210 211 210 204 199 198 202 206 210 212 214 215 216 218 205 176 165 166 165 166 165 164 166 172 178 184 191 198 200 198 193 190 184 172 170 169 168 166 170 160 138 126 141 136 76 37 22 12 5 5 17 16 6 350 336 321 308 301 292 286 289 309 317 328 343 318 307 301 294 292 294
61 65 70 85 215 212 206 200 188 162 156 165 180 192 199 203 204 207 209 209 211 214 217 218 219 222 224 225 225 222 219 215 213 214 213 209 207 209 214 217 222 229 234 240 252 307 0 93 140 155 164 174 176 169 169 171 176 183 194 200 201 198 194 188 178 162 163 163 162 161 158 148 135 132 124 94 62 41 29 15 4 357 4 4 358 347 330 312 299 292 289 288 290 295 304 296 262 224 278 290 294 300 300
169 158 154 176 218 249 214 97 115 140 165 181 195 206 208 206 205 207 207 207 209 214 216 217 219 223 224 226 227 229 226 222 217 212 210 209 210 213 216 218 221 228 237 239 240 245 249 170 155 169 176 180 180 177 175 179 186 191 193 195 193 189 188 185 177 158 155 154 154 155 149 142 136 131 113 91 72 57 43 24 7 357 356 352 347 338 331 324 316 309 308 305 297 280 283 279 265 231 232 270 296 309 312
173 166 172 166 67 22 46 64 83 123 157 199 220 226 222 215 210 209 208 208 209 214 215 216 219 222 226 228 230 230 230 228 223 214 209 209 212 214 214 214 215 215 217 217 215 211 211 195 181 183 183 178 176 182 185 188 188 186 186 186 182 174 178 178 174 161 154 150 150 151 146 139 130 119 95 79 71 63 48 25 7 356 349 342 336 330 328 323 316 309 304 298 291 281 285 288 282 265 239 270 319 314 308
130 113 135 112 87 52 52 78 107 132 138 191 237 240 234 228 223 218 214 212 212 217 218 218 219 221 224 227 230 231 231 231 229 220 213 213 216 219 216 215 214 213 212 209 207 203 209 207 198 187 187 181 178 184 188 187 183 179 180 177 165 148 165 169 169 169 164 154 141 130 109 94 82 74 66 63 59 50 33 18 5 352 341 334 327 323 319 312 305 298 292 287 286 295 301 295 286 286 303 345 334 309 298
134 152 172 150 130 117 127 150 153 145 141 177 229 241 231 241 256 247 227 219 221 225 224 224 225 224 225 227 231 234 232 233 233 228 220 219 221 223 219 217 217 216 213 209 205 201 208 212 207 190 193 191 188 185 180 175 172 173 171 161 141 118 146 157 162 166 155 115 86 80 76 72 68 63 56 50 44 35 24 13 359 343 332 326 323 321 315 309 304 305 301 300 302 310 305 295 288 293 308 316 307 294 290
174 182 184 168 152 147 166 181 184 170 175 192 215 241 351 355 324 304 275 241 235 236 234 234 235 236 235 235 237 239 235 234 234 236 228 224 224 225 219 219 219 218 216 212 208 204 206 207 205 193 186 183 178 171 158 156 157 161 153 142 129 119 116 119 122 120 102 83 74 76 78 76 72 63 49 39 33 29 20 7 352 336 333 333 334 335 328 323 321 324 325 327 329 332 327 322 317 312 308 296 284 278 287
195 191 184 172 164 162 163 175 192 201 199 202 210 214 355 325 314 318 323 311 292 278 265 259 257 258 255 250 248 248 244 239 236 238 235 231 228 226 220 219 218 217 219 218 215 208 205 202 196 178 145 124 116 120 126 135 141 143 135 132 129 120 99 90 88 91 94 93 90 86 79 73 66 59 49 39 31 26 18 7 358 349 352 355 357 353 346 340 337 338 339 340 340 340 341 336 330 322 317 308 296 288 297
198 191 178 168 163 162 158 166 185 220 224 242 235 203 194 221 264 317 349 353 354 357 352 342 327 312 290 275 265 261 254 247 242 241 240 236 232 228 223 221 220 217 219 221 220 210 203 197 179 142 110 97 94 101 109 120 127 131 129 129 125 107 99 96 94 92 95 95 91 82 74 67 61 55 49 40 31 24 18 11 5 360 1 360 356 348 344 342 342 344 346 345 343 341 339 335 330 327 323 318 315 319 316
187 185 170 159 153 156 149 134 101 29 357 313 270 199 80 20 0 9 5 0 357 358 354 348 341 328 311 297 285 278 270 260 253 248 246 242 238 232 227 225 222 218 216 218 219 211 200 186 157 125 115 115 116 114 112 118 123 129 131 126 117 103 101 99 96 93 91 87 82 74 68 62 57 52 46 38 30 22 16 9 2 357 354 347 337 330 330 332 336 340 344 342 339 336 335 334 332 330 326 324 326 330 320
143 181 166 148 132 123 96 74 56 29 3 350 357 22 27 20 13 10 3 357 352 348 342 336 328 316 306 301 298 296 289 280 269 259 253 248 244 237 233 229 225 221 215 214 212 206 194 175 151 131 132 135 138 129 125 127 131 136 133 125 118 112 105 101 97 94 88 81 76 72 66 61 56 51 44 36 27 18 10 1 352 346 339 327 316 312 314 320 326 333 335 334 331 329 330 331 330 326 321 320 321 321 315
39 16 59 70 70 67 62 54 42 23 12 6 6 15 17 13 5 359 355 350 344 337 333 328 320 308 302 299 297 295 291 287 281 272 262 255 249 242 239 236 231 224 216 212 207 200 189 173 156 145 148 150 150 142 139 141 142 143 136 129 122 116 107 103 101 94 85 79 74 70 68 64 59 52 43 33 21 8 356 345 337 332 321 309 300 297 303 313 323 328 330 329 328 327 327 325 321 314 311 310 311 312 310
25 31 33 32 34 43 49 44 34 21 15 9 7 9 7 0 352 349 350 346 342 337 336 332 325 315 309 303 297 291 286 284 282 279 270 262 254 248 245 242 237 230 220 213 205 195 186 174 162 155 157 158 157 148 144 141 139 138 135 127 117 108 105 102 97 86 79 75 72 69 70 67 61 52 39 24 9 351 338 329 323 316 302 292 288 292 305 319 327 331 332 331 329 326 323 319 313 308 306 306 307 306 306
45 49 49 43 37 38 41 37 27 18 16 12 7 4 357 349 346 350 352 352 350 347 345 340 333 325 318 311 304 295 287 281 277 276 275 271 264 257 253 248 243 236 226 218 206 194 184 173 162 155 156 156 153 142 133 126 123 125 120 111 104 101 100 91 80 72 72 71 70 69 67 64 60 49 28 6 346 329 320 314 306 294 284 282 289 305 318 327 332 334 333 330 325 321 316 313 311 310 309 308 307 305 305
67 66 66 61 54 48 44 37 27 21 16 9 2 357 353 351 353 358 1 1 359 354 350 346 341 334 327 320 313 303 293 284 278 277 283 288 290 285 276 265 254 244 235 225 209 191 177 164 153 146 146 145 139 126 119 115 111 106 99 98 98 97 89 80 72 68 69 69 68 65 63 61 59 47 10 328 308 299 296 292 286 280 280 291 308 321 326 330 331 331 328 323 318 313 311 310 309 308 306 305 305 304 303
80 77 74 69 62 55 49 40 31 23 15 5 360 0 0 1 4 6 6 5 3 356 352 349 345 338 331 326 320 312 302 296 295 301 312 317 320 320 313 298 277 256 242 225 202 172 154 143 136 133 132 129 124 117 116 114 108 101 96 96 98 95 87 84 85 87 81 74 67 60 60 61 61 48 292 274 273 274 273 275 279 284 293 305 315 320 322 322 321 319 315 311 307 306 306 305 303 301 299 300 301 300 298
83 78 73 67 60 52 47 40 32 22 16 12 10 10 9 10 9 8 6 4 1 356 353 350 345 338 331 326 323 319 317 321 331 344 343 342 341 343 340 333 315 278 250 209 159 128 118 111 108 108 112 114 114 112 111 109 105 99 96 93 92 91 92 96 102 105 90 79 68 60 58 56 49 263 250 251 258 268 275 282 288 291 296 300 303 304 302 301 301 300 300 300 300 300 298 296 295 293 295 296 296 296 293
81 75 69 63 56 49 42 35 29 22 21 21 20 18 16 14 10 6 4 2 360 357 353 349 343 335 328 324 323 325 337 353 6 9 1 359 359 358 356 357 360 14 50 85 101 104 99 93 87 83 86 92 97 97 96 95 92 90 87 83 80 81 85 89 92 89 81 74 66 60 54 34 291 263 260 263 272 284 290 291 291 290 290 290 290 288 287 288 290 292 295 296 296 295 292 289 288 290 293 293 293 293 292
75 70 65 60 54 48 38 30 25 23 25 26 25 22 18 14 8 3 2 1 359 355 350 344 337 330 324 320 322 335 3 20 24 19 14 16 17 10 6 10 21 39 46 55 68 80 85 86 83 78 75 77 81 84 85 85 83 82 80 76 72 71 71 72 72 69 69 65 58 52 37 325 284 280 288 296 300 300 295 291 288 285 283 281 280 280 284 287 291 293 294 294 292 288 288 288 287 287 289 290 290 290 290
66 62 59 55 49 42 33 25 21 23 30 30 29 24 19 12 6 1 1 359 355 348 343 337 331 325 320 318 324 352 31 39 35 26 25 30 32 24 19 25 34 42 43 46 51 59 67 74 78 79 75 74 76 80 81 80 79 79 77 75 73 73 72 69 66 64 65 62 55 34 351 289 289 298 306 307 305 299 292 287 283 279 275 272 272 275 279 282 283 283 283 284 284 284 285 285 284 282 282 284 286 285 284
66 58 52 45 40 33 26 19 18 25 35 35 33 27 20 12 5 1 360 355 348 341 337 332 328 323 318 319 331 17 52 55 48 39 38 41 43 41 36 39 43 47 46 47 50 57 63 69 74 79 77 75 74 75 75 76 78 80 81 80 79 78 73 68 65 63 61 62 57 351 314 306 309 311 311 306 301 294 287 281 275 269 269 269 269 270 272 272 271 269 271 273 276 280 280 279 279 279 278 278 279 279 279
72 61 51 40 31 19 11 11 23 39 44 41 36 29 21 12 5 360 356 349 340 334 331 329 325 321 318 322 342 39 68 69 63 54 51 52 54 54 50 48 48 50 51 52 56 63 68 70 71 75 74 73 73 73 74 75 77 80 83 82 79 71 63 62 63 67 64 65 57 352 333 329 324 318 311 303 295 287 278 270 264 260 263 266 267 267 267 267 266 265 267 270 272 273 273 273 274 275 275 274 273 274 275
74 64 53 39 21 2 351 352 17 65 66 58 47 36 25 13 4 357 349 339 330 324 324 323 321 318 317 323 346 61 83 84 80 73 70 69 69 68 65 61 57 55 56 59 65 70 73 74 74 75 77 77 77 78 78 78 79 81 81 79 74 66 63 62 65 71 65 38 354 348 338 330 323 316 307 297 287 277 267 261 257 257 259 262 264 264 264 265 265 266 269 271 271 270 270 270 270 270 272 273 273 273 273
64 57 45 29 10 349 338 330 326 115 102 89 72 52 34 17 3 352 342 331 322 316 314 314 314 313 312 315 338 97 101 100 98 95 92 89 87 84 81 77 74 73 72 73 75 78 78 79 81 81 84 85 85 83 85 84 83 82 80 78 75 73 68 60 50 39 14 354 344 343 334 325 317 308 297 285 274 264 258 256 257 259 260 262 263 264 264 265 265 266 272 274 273 271 271 270 269 268 270 272 273 273 271
53 44 30 13 354 336 323 306 278 223 115 88 71 55 39 20 2 349 339 331 322 313 307 305 306 306 301 296 208 122 114 113 114 114 109 104 100 100 98 96 95 95 91 88 87 88 88 88 89 87 86 86 86 84 87 87 86 82 79 79 78 74 61 43 26 13 352 341 334 330 321 311 301 291 280 270 261 255 253 254 257 260 262 263 264 264 265 266 267 265 270 273 273 272 272 270 267 266 265 266 268 268 267
50 36 16 354 334 320 304 282 249 199 86 68 57 45 31 15 359 349 341 332 323 313 306 303 300 298 293 286 119 112 112 116 122 126 124 122 119 117 114 112 110 107 103 102 101 99 98 97 95 92 87 85 83 83 87 90 90 86 83 82 79 72 59 40 5 345 327 319 313 307 296 286 277 269 264 259 254 251 254 257 260 262 264 266 266 266 267 267 268 267 269 270 270 270 270 268 265 262 260 260 261 262 263
44 27 358 334 320 308 290 259 213 165 122 91 68 45 26 10 357 348 339 330 322 316 311 305 300 298 297 306 99 107 117 126 135 142 145 144 139 132 129 126 122 117 116 113 108 104 103 102 100 96 93 91 88 88 92 96 98 95 94 91 89 88 110 251 299 308 305 300 294 285 276 268 262 258 255 253 252 252 255 258 261 264 266 268 269 268 268 268 268 269 269 268 267 266 266 265 263 260 259 258 259 260 262
23 0 340 323 311 301 282 248 201 162 131 100 71 43 21 6 354 344 335 328 323 321 316 308 299 292 289 279 129 122 133 141 147 150 154 153 148 142 139 136 133 129 128 120 111 105 104 103 100 97 94 93 93 93 94 96 96 96 96 100 106 132 64 327 314 302 296 289 281 273 267 261 256 252 249 249 250 252 254 257 261 265 268 270 271 271 271 270 270 271 271 270 268 266 265 265 264 262 261 260 261 263 264
359 335 324 313 304 296 284 261 202 131 88 61 41 26 11 359 349 340 333 330 327 325 319 310 298 280 266 228 159 140 145 149 151 153 157 156 150 143 137 133 130 129 126 119 112 109 108 104 99 95 92 92 94 96 94 92 91 89 90 90 83 52 0 322 297 285 279 274 269 264 260 255 250 245 242 244 249 254 257 260 264 267 270 272 275 276 276 275 275 274 274 272 271 270 269 268 268 267 265 264 264 267 268
339 320 312 305 301 298 296 304 46 63 53 40 26 14 2 352 345 340 336 333 330 325 318 311 301 282 263 219 174 154 156 157 156 153 153 150 142 130 122 118 116 114 112 110 109 110 109 105 101 101 100 100 101 104 105 104 102 104 110 100 2 334 296 280 271 265 261 258 256 254 249 245 241 239 243 248 255 263 267 270 273 275 277 280 282 283 284 285 286 285 284 282 281 280 278 277 277 275 274 274 274 275 275
314 303 302 302 303 304 312 15 50 49 41 30 17 5 356 348 343 340 337 334 329 323 317 311 304 289 274 239 192 159 152 149 146 141 136 130 121 112 110 109 109 108 108 109 110 113 110 109 108 112 116 119 123 128 135 140 147 161 182 210 236 250 251 252 252 252 250 247 245 243 243 244 250 255 261 268 273 277 279 281 283 284 286 287 289 290 291 293 294 293 292 292 292 291 290 289 287 285 285 284 284 284 284
297 296 300 305 310 319 8 50 49 39 28 18 8 359 351 346 342 339 336 332 328 323 317 312 306 293 278 250 180 125 115 112 113 116 116 115 113 112 115 117 119 122 123 125 126 125 121 119 122 129 137 144 150 159 168 173 180 192 205 215 224 232 236 240 245 252 252 250 249 254 263 271 276 279 283 285 286 286 286 286 287 288 289 290 292 293 293 294 295 295 296 296 296 296 295 294 293 292 291 290 289 288 287
300 303 310 319 334 6 38 43 36 26 16 8 360 353 347 343 339 337 334 331 327 323 318 314 310 302 286 247 120 104 103 104 107 110 115 118 122 128 133 137 139 142 144 145 143 139 137 138 143 151 159 166 172 181 187 189 192 202 208 211 216 232 246 261 286 306 302 294 289 288 289 289 290 290 290 290 289 288 287 287 288 288 290 291 292 294 295 296 296 296 297 297 297 297 297 297 297 296 295 293 292 291 290
312 318 330 347 11 34 39 35 27 18 8 1 354 348 343 339 337 335 333 331 329 325 322 320 319 315 307 106 110 108 110 113 118 121 125 130 136 144 150 153 155 158 160 159 155 150 151 155 160 167 174 178 183 189 189 186 183 193 185 41 19 3 352 345 338 328 318 311 305 299 294 292 291 290 289 288 287 286 286 287 287 288 290 291 293 295 297 297 297 297 297 297 297 297 298 298 298 297 296 295 293 292 291
326 336 351 10 29 39 36 29 20 11 2 354 347 342 338 336 334 333 333 334 333 331 330 329 330 336 31 82 99 109 114 119 125 130 136 141 147 157 164 167 168 169 169 167 163 159 160 163 166 172 173 171 165 148 95 63 47 32 23 15 6 357 347 338 328 319 312 307 301 296 291 288 287 287 285 284 284 284 285 286 287 288 290 291 294 296 298 298 298 298 297 297 297 296 296 296 296 295 294 293 292 291 290
342 352 7 25 36 36 29 21 12 3 354 346 341 336 334 332 332 334 337 340 341 340 339 339 344 27 63 74 89 107 116 124 134 142 149 155 160 167 173 174 171 168 168 164 159 155 155 152 148 140 117 87 65 51 42 35 27 19 10 1 350 339 329 320 313 307 302 297 291 287 284 283 282 283 282 282 282 283 285 286 288 290 291 293 295 297 297 297 297 296 296 295 295 294 293 292 292 291 290 289 288 288 287
353 6 25 35 35 29 21 12 2 353 345 339 334 331 329 330 333 340 346 349 350 350 350 352 3 51 75 83 95 110 124 134 144 149 156 159 161 160 158 152 144 139 134 126 121 118 113 102 86 69 57 48 41 36 29 22 13 5 353 339 323 311 303 299 296 294 291 288 283 280 280 281 281 282 283 283 284 286 288 290 292 293 294 295 296 296 295 294 293 292 292 291 290 289 288 288 287 286 285 285 284 283 283
7 25 33 33 29 21 11 1 351 342 336 331 328 326 327 331 339 351 356 358 359 360 3 5 13 39 70 85 96 106 123 130 133 133 135 133 126 117 111 106 99 92 80 71 65 60 58 54 49 44 39 33 29 25 18 9 356 339 320 304 292 286 283 282 281 281 280 280 280 281 284 285 286 286 288 289 290 291 293 293 293 294 294 294 294 293 291 290 289 288 287 286 285 284 283 283 282 282 281 280 279 279 279
23 34 33 28 20 10 359 349 340 333 329 326 324 323 326 336 351 3 4 5 6 11 17 17 14 20 49 66 75 84 100 104 103 100 101 97 91 86 83 77 71 64 58 52 47 43 42 40 38 35 32 27 21 14 0 340 317 297 284 276 272 270 269 270 270 271 273 277 281 286 289 290 291 292 293 293 293 294 293 292 292 292 292 292 290 289 287 285 284 282 282 281 280 279 278 278 277 277 278 277 277 278 278
30 35 29 19 8 358 347 338 332 327 324 322 321 323 330 345 4 12 11 10 13 24 35 33 21 14 40 54 60 64 80 87 89 90 89 86 83 78 73 67 63 61 58 54 51 48 46 44 42 38 33 25 11 347 314 290 277 269 264 261 259 259 261 263 265 267 273 279 284 288 290 292 293 295 295 294 293 293 292 291 290 289 288 287 286 284 282 280 279 278 277 276 275 275 274 274 274 275 276 278 280 281 283
29 29 19 7 356 345 335 329 325 322 320 319 320 324 336 357 11 14 13 12 18 36 54 54 40 26 47 59 70 76 84 86 88 89 88 86 83 81 79 75 71 70 68 67 66 66 67 66 63 58 51 21 293 268 261 257 254 253 252 252 253 254 256 263 271 278 284 287 289 289 291 293 295 297 296 294 292 291 289 288 287 286 284 282 280 279 278 277 276 276 275 273 272 271 271 272 273 276 280 283 287 290 291
22 18 6 354 343 333 327 323 321 318 317 317 318 324 345 8 15 15 12 11 14 28 56 71 71 53 62 80 101 104 94 93 94 94 90 86 83 83 86 87 87 87 89 92 96 100 102 105 110 125 175 217 232 239 241 242 243 244 246 246 249 254 271 288 294 297 295 294 294 295 294 295 295 295 294 293 291 289 287 285 284 283 281 278 276 275 274 272 271 271 272 272 272 272 274 278 282 286 291 294 295 295 295
10 4 352 341 332 325 322 319 317 315 314 313 315 330 0 15 18 16 12 11 10 12 38 113 133 125 132 141 134 109 98 99 104 103 95 91 91 94 99 104 108 113 122 129 134 135 137 148 167 189 206 218 225 230 233 236 238 239 237 235 245 286 304 305 303 300 298 297 297 297 296 294 292 289 288 288 287 287 285 283 282 281 279 277 276 274 273 271 270 270 272 275 280 284 291 297 301 302 300 299 297 295 294
357 348 338 330 323 319 317 315 314 311 309 309 316 352 11 17 17 14 9 6 4 358 323 205 175 164 175 175 159 126 121 123 126 124 119 118 120 124 127 133 139 147 154 159 164 168 179 192 201 207 213 219 224 228 230 231 229 225 219 224 283 313 307 302 298 296 296 296 296 295 294 292 289 286 284 283 283 284 284 283 282 281 279 278 277 276 275 275 275 275 277 281 290 301 307 309 307 302 299 296 294 293 291
343 335 327 321 318 317 315 313 310 307 307 311 330 7 16 17 14 8 1 356 349 335 309 268 202 183 185 178 155 125 121 122 124 125 130 138 144 148 152 156 162 167 173 181 190 198 204 210 214 216 219 222 224 225 222 218 214 209 210 290 315 307 299 296 294 294 293 291 291 291 291 289 287 284 282 281 280 280 281 282 281 281 280 279 278 278 278 279 280 282 286 292 300 308 307 305 302 300 298 296 294 292 290
330 323 319 318 317 317 314 311 307 304 306 314 337 13 17 12 3 353 348 340 329 313 303 287 223 187 173 137 97 81 80 75 69 63 84 123 151 163 165 168 172 178 189 201 209 211 215 218 220 222 222 222 220 214 207 202 200 194 301 315 308 301 297 296 295 292 289 288 288 290 287 284 282 282 282 281 280 280 280 280 280 280 279 278 278 279 280 282 286 291 299 307 314 316 310 304 300 298 297 296 294 291 290
320 316 316 316 316 314 310 306 303 301 304 315 340 13 19 6 348 338 337 326 313 299 302 310 76 137 102 81 69 67 71 70 65 51 28 338 267 239 216 203 196 196 203 210 215 217 218 220 221 221 218 215 210 201 194 185 179 337 316 309 303 300 297 294 291 287 287 289 291 288 284 283 282 281 280 280 281 281 281 281 280 279 278 278 279 281 284 288 295 303 311 316 318 318 313 306 301 298 296 295 293 292 290
314 313 314 313 310 307 304 301 299 299 303 317 343 0 7 357 345 342 335 322 309 308 342 34 66 75 68 67 70 81 95 108 122 153 209 234 243 246 243 234 222 211 211 212 215 217 219 220 221 219 216 211 202 187 170 154 30 323 311 305 301 297 291 286 282 281 287 288 286 283 283 283 282 281 280 280 281 282 283 282 282 280 280 281 283 286 290 297 305 314 318 319 319 319 315 309 303 298 296 294 292 290 287
312 311 309 306 304 301 299 297 297 295 297 310 347 358 341 8 3 354 339 325 323 64 73 76 76 72 69 74 84 102 134 159 178 202 218 225 228 231 234 233 228 220 215 215 219 225 232 236 238 236 226 211 189 157 132 75 326 309 300 296 293 290 285 283 282 285 287 285 283 281 282 282 281 281 283 283 283 283 282 283 283 283 283 284 287 292 299 308 315 321 321 320 319 318 314 309 303 297 293 290 287 284 280
309 306 303 301 299 297 296 296 296 295 303 333 46 67 36 21 14 5 15 101 119 106 102 96 91 89 99 119 150 181 207 215 220 229 237 236 232 228 227 226 225 222 222 227 233 241 246 247 247 242 228 203 158 113 73 335 307 296 291 291 291 291 289 289 289 289 287 286 285 284 284 284 284 285 286 286 285 284 284 285 286 287 287 288 292 300 310 318 322 323 322 320 318 317 312 306 300 295 290 286 282 278 275
303 300 298 297 296 297 298 301 307 322 350 13 25 30 18 11 9 11 68 109 117 109 110 112 119 136 165 186 199 208 221 232 242 249 251 246 236 227 222 221 221 224 230 235 239 242 242 242 240 230 200 144 99 63 1 319 303 299 303 306 304 299 293 289 287 285 285 284 284 285 286 287 288 288 288 287 287 286 286 287 289 290 290 294 302 312 320 324 324 323 321 318 316 314 309 303 297 291 287 283 279 276 273
296 294 294 295 297 300 305 311 321 343 19 24 20 22 14 6 3 9 74 110 126 137 144 151 164 185 196 205 212 216 219 228 239 248 245 238 229 223 221 222 225 230 235 239 241 241 239 235 224 177 124 95 72 34 348 326 321 324 326 319 310 299 290 284 280 279 278 279 279 282 285 289 290 291 291 290 289 288 288 290 292 293 294 304 314 322 324 324 323 321 318 316 313 310 306 300 293 289 285 281 278 275 273